GW0480 Weather Reports


time (UTC)temp
C
wind
direction
speed
KPH
gust
KPH
rain 1hr
cm
rain 24hr
cm
rain mn
cm
humidity
%
barometer
mb
20260503000751 8 348 0.0 0.0 0.00 0.13 0.13 92 1008.5
20260503000248 9 12 0.0 0.0 0.00 0.13 0.13 91 1008.4
20260502235745 9 10 0.0 0.0 0.00 0.13 0.13 91 1008.3
20260502235243 9 12 0.0 0.0 0.00 0.13 0.13 90 1008.2
20260502234739 9 13 0.0 0.0 0.00 0.13 0.13 90 1008.3
20260502234236 9 21 0.0 0.0 0.00 0.13 0.13 90 1008.3
20260502233732 9 10 0.0 0.0 0.00 0.13 0.13 89 1008.5
20260502233229 9 0 0.0 0.0 0.00 0.13 0.13 89 1008.3
20260502232725 9 10 0.0 0.0 0.00 0.13 0.13 89 1008.3
20260502232222 9 24 0.0 0.0 0.00 0.13 0.13 89 1008.3
20260502231719 9 5 0.0 0.0 0.00 0.13 0.13 90 1008.4
20260502231217 9 24 0.0 0.0 0.00 0.13 0.13 91 1008.3
20260502230716 9 9 0.0 0.0 0.00 0.13 0.13 91 1008.4
20260502230213 9 33 0.0 0.0 0.00 0.13 0.13 91 1008.3
20260502225709 9 37 0.0 0.0 0.00 0.13 0.13 91 1008.5
20260502225206 9 48 0.0 0.0 0.00 0.13 0.13 91 1008.5
20260502224702 9 3 0.0 0.0 0.00 0.13 0.13 91 1008.4
20260502224159 9 267 1.6 1.6 0.00 0.13 0.13 91 1008.4
20260502223657 9 329 0.0 1.6 0.00 0.13 0.13 90 1008.3
20260502223155 9 357 3.2 3.2 0.00 0.13 0.13 89 1008.2
20260502222652 9 341 0.0 1.6 0.00 0.13 0.13 89 1008.0
20260502222149 10 47 1.6 1.6 0.00 0.13 0.13 87 1008.1
20260502221644 10 7 4.8 4.8 0.00 0.13 0.13 86 1008.3
20260502221142 10 356 0.0 1.6 0.00 0.13 0.13 86 1008.2
20260502220638 10 9 1.6 1.6 0.00 0.13 0.13 86 1008.4
20260502220134 10 348 0.0 1.6 0.00 0.13 0.13 87 1008.5
20260502215631 10 343 0.0 1.6 0.00 0.13 0.13 89 1008.4
20260502215128 10 8 1.6 1.6 0.00 0.13 0.13 89 1008.5
20260502214625 10 329 0.0 1.6 0.00 0.13 0.13 89 1008.3
20260502214122 10 33 0.0 1.6 0.00 0.13 0.13 88 1008.3
20260502213620 11 68 1.6 1.6 0.00 0.13 0.13 89 1008.3
20260502213117 11 21 0.0 0.0 0.00 0.13 0.13 88 1008.3
20260502212616 11 332 0.0 1.6 0.00 0.13 0.13 88 1008.2
20260502212114 11 1 0.0 0.0 0.00 0.13 0.13 89 1008.1
20260502211609 11 176 0.0 1.6 0.00 0.13 0.13 88 1008.1
20260502211106 11 293 1.6 3.2 0.00 0.13 0.13 87 1008.2
20260502210603 11 37 0.0 0.0 0.00 0.13 0.13 87 1008.0
20260502210100 11 73 4.8 4.8 0.00 0.13 0.13 87 1008.1
20260502205556 11 51 3.2 3.2 0.00 0.13 0.13 86 1008.4
20260502205054 12 223 1.6 3.2 0.00 0.13 0.13 86 1008.1
20260502204550 12 245 1.6 3.2 0.00 0.13 0.13 84 1008.2
20260502204048 12 325 1.6 3.2 0.00 0.13 0.13 85 1008.2
20260502203545 12 284 1.6 1.6 0.00 0.13 0.13 85 1008.0
20260502203042 11 26 0.0 0.0 0.00 0.13 0.13 85 1008.1
20260502202538 11 225 1.6 3.2 0.00 0.13 0.13 86 1008.2
20260502202036 11 72 1.6 3.2 0.00 0.13 0.13 85 1008.1
20260502201532 11 257 4.8 4.8 0.00 0.13 0.13 85 1008.3
20260502201029 11 101 1.6 1.6 0.00 0.13 0.13 86 1008.2
20260502200525 11 14 0.0 1.6 0.00 0.13 0.13 86 1008.4
20260502200023 11 21 0.0 0.0 0.00 0.13 0.13 85 1008.4
20260502195521 11 94 1.6 3.2 0.00 0.13 0.13 84 1008.6
20260502195016 11 332 1.6 1.6 0.00 0.13 0.13 84 1008.5
20260502194513 11 220 3.2 3.2 0.00 0.13 0.13 85 1008.6
20260502194009 11 335 3.2 3.2 0.00 0.13 0.13 85 1008.5
20260502193506 11 353 1.6 1.6 0.00 0.13 0.13 84 1008.6
20260502193003 11 94 1.6 3.2 0.00 0.13 0.13 86 1008.8
20260502192458 12 53 1.6 3.2 0.00 0.13 0.13 86 1008.6
20260502191956 11 229 1.6 3.2 0.00 0.13 0.13 86 1008.8
20260502191453 11 347 1.6 3.2 0.00 0.13 0.13 86 1008.8
20260502190951 11 5 1.6 1.6 0.00 0.13 0.13 88 1009.0
20260502190448 11 86 4.8 4.8 0.00 0.13 0.13 87 1008.8
20260502185944 11 44 3.2 3.2 0.00 0.13 0.13 87 1009.2
20260502185440 11 98 6.4 8.0 0.00 0.13 0.13 87 1009.0
20260502184937 11 32 3.2 3.2 0.00 0.13 0.13 90 1009.2
20260502184432 11 47 3.2 3.2 0.00 0.13 0.13 92 1009.2
20260502183929 10 355 0.0 0.0 0.00 0.13 0.13 94 1009.2
20260502183425 11 321 1.6 1.6 0.00 0.13 0.13 95 1009.2
20260502182920 10 12 0.0 0.0 0.00 0.13 0.13 96 1009.2
20260502182416 10 333 0.0 0.0 0.13 0.13 0.13 95 1009.3
20260502181912 10 349 1.6 1.6 0.13 0.13 0.13 95 1009.3
20260502181411 10 21 0.0 0.0 0.00 0.10 0.10 95 1009.3
20260502180909 10 34 0.0 0.0 0.18 0.10 0.10 94 1009.4
20260502180406 10 316 1.6 1.6 0.18 0.10 0.10 94 1009.5
20260502170324 11 95 1.6 1.6 0.00 0.00 0.00 84 1009.5
20260502164312 11 38 1.6 1.6 0.00 0.00 0.00 81 1009.6
20260502163808 11 57 1.6 1.6 0.00 0.00 0.00 80 1009.5
20260502163304 11 9 0.0 0.0 0.00 0.00 0.00 78 1009.4
20260502162802 11 86 0.0 1.6 0.00 0.00 0.00 81 1009.3
20260502162259 11 23 0.0 0.0 0.00 0.00 0.00 81 1009.4
20260502161755 11 24 0.0 0.0 0.00 0.00 0.00 82 1009.4
20260502161251 11 331 1.6 1.6 0.00 0.00 0.00 83 1009.5
20260502160750 11 297 1.6 1.6 0.00 0.00 0.00 78 1009.4
20260502160249 12 45 0.0 1.6 0.00 0.00 0.00 79 1009.8
20260502152218 13 96 3.2 4.8 0.00 0.00 0.00 78 1009.6
20260502151715 12 11 0.0 0.0 0.00 0.00 0.00 82 1009.9
20260502151212 12 340 0.0 0.0 0.00 0.00 0.00 82 1009.6
20260502150709 12 296 1.6 3.2 0.00 0.00 0.00 82 1010.0
20260502150206 12 344 1.6 1.6 0.00 0.00 0.00 83 1009.8
20260502140130 12 97 1.6 3.2 0.00 0.00 0.00 78 1009.9
20260502130555 10 2 0.0 1.6 0.00 0.00 0.00 84 1010.9
20260502123538 10 23 0.0 0.0 0.00 0.00 0.00 83 1010.9
20260502123034 10 242 1.6 3.2 0.00 0.00 0.00 82 1010.8
20260502122531 10 220 4.8 4.8 0.00 0.00 0.00 81 1011.0
20260502122028 10 35 0.0 1.6 0.00 0.00 0.00 81 1010.7
20260502121526 10 343 1.6 3.2 0.00 0.00 0.00 81 1010.8
20260502121023 10 286 1.6 3.2 0.00 0.00 0.00 81 1010.5
20260502120519 10 315 3.2 3.2 0.00 0.00 0.00 81 1010.6
20260502115514 11 62 1.6 1.6 0.00 0.00 0.00 80 1010.5
20260502115009 10 246 3.2 3.2 0.00 0.00 0.00 79 1010.3
20260502114507 10 79 1.6 3.2 0.00 0.00 0.00 81 1010.2
20260502114003 11 55 1.6 3.2 0.00 0.00 0.00 80 1010.2
20260502113501 10 268 1.6 1.6 0.00 0.00 0.00 81 1010.0
20260502112959 10 18 0.0 0.0 0.00 0.00 0.00 82 1010.1
20260502112456 9 48 0.0 0.0 0.00 0.00 0.00 84 1010.1
20260502111954 9 35 0.0 0.0 0.00 0.00 0.00 85 1010.0
20260502111451 9 18 0.0 0.0 0.00 0.00 0.00 86 1010.0
20260502110949 9 283 1.6 1.6 0.00 0.00 0.00 86 1010.1
20260502110446 8 6 0.0 1.6 0.00 0.00 0.00 86 1010.2
20260502105943 8 24 0.0 0.0 0.00 0.00 0.00 88 1010.0
20260502105440 8 30 0.0 0.0 0.00 0.00 0.00 90 1010.1
20260502104938 8 36 0.0 0.0 0.00 0.00 0.00 91 1010.1
20260502104435 8 23 0.0 0.0 0.00 0.00 0.00 93 1010.2
20260502103932 8 22 0.0 0.0 0.00 0.00 0.00 93 1010.0
20260502103430 7 21 0.0 0.0 0.00 0.00 0.00 94 1009.7
20260502102927 7 29 0.0 0.0 0.00 0.00 0.00 95 1009.9
20260502102424 7 29 0.0 0.0 0.00 0.00 0.00 95 1010.0
20260502101921 7 16 0.0 0.0 0.00 0.00 0.00 96 1010.0
20260502101419 7 19 0.0 0.0 0.00 0.00 0.00 96 1009.9
20260502100917 7 10 0.0 0.0 0.00 0.00 0.00 96 1009.8
20260502100416 7 35 0.0 0.0 0.00 0.00 0.00 96 1009.7
20260502091350 7 24 0.0 0.0 0.00 0.00 0.00 92 1009.6
20260502090848 7 6 0.0 0.0 0.00 0.00 0.00 92 1009.6
20260502090344 7 25 0.0 0.0 0.00 0.00 0.00 91 1009.6
20260502071239 8 10 0.0 0.0 0.00 0.00 0.00 83 1009.6
20260502070737 8 352 0.0 0.0 0.00 0.00 0.00 82 1009.5
20260502070234 8 12 0.0 0.0 0.00 0.00 0.00 81 1009.5
20260502065733 9 33 0.0 0.0 0.00 0.00 0.00 81 1009.6
20260502065231 8 50 0.0 1.6 0.00 0.00 0.00 79 1009.6
20260502064729 8 29 0.0 0.0 0.00 0.00 0.00 79 1009.6
20260502064226 8 345 0.0 0.0 0.00 0.00 0.00 81 1009.7
20260502063723 8 7 0.0 0.0 0.00 0.00 0.00 82 1009.7
20260502063221 8 345 0.0 0.0 0.00 0.00 0.00 84 1009.9
20260502062718 8 22 0.0 0.0 0.00 0.00 0.00 84 1009.8
20260502062216 7 11 0.0 0.0 0.00 0.00 0.00 84 1009.7
20260502061714 7 25 0.0 0.0 0.00 0.00 0.00 86 1009.7
20260502061211 7 30 0.0 0.0 0.00 0.00 0.00 87 1009.6
20260502060706 7 20 0.0 0.0 0.00 0.00 0.00 87 1009.7
20260502060203 7 33 0.0 1.6 0.00 0.00 0.00 87 1009.7
20260502055701 6 21 0.0 0.0 0.00 0.00 0.00 87 1009.9
20260502055158 6 14 0.0 0.0 0.00 0.00 0.00 87 1009.7
20260502054657 6 20 0.0 0.0 0.00 0.00 0.00 87 1009.8
20260502054154 6 27 0.0 0.0 0.00 0.00 0.00 86 1009.7
20260502053652 6 27 0.0 0.0 0.00 0.00 0.00 86 1009.8
20260502053148 6 39 0.0 0.0 0.00 0.00 0.00 85 1009.9
20260502052647 6 19 0.0 0.0 0.00 0.00 0.00 84 1010.0
20260502052145 6 11 0.0 0.0 0.00 0.00 0.00 83 1009.8
20260502051643 7 14 0.0 0.0 0.00 0.00 0.00 83 1009.9
20260502051141 7 23 0.0 0.0 0.00 0.00 0.00 82 1009.8
20260502050636 7 14 0.0 0.0 0.00 0.00 0.00 81 1010.0
20260502050133 7 21 0.0 0.0 0.00 0.00 0.00 79 1010.2
20260502045630 7 11 0.0 0.0 0.00 0.00 0.00 78 1010.0
20260502045127 8 14 0.0 0.0 0.00 0.00 0.00 78 1010.0
20260502044623 8 39 0.0 0.0 0.00 0.00 0.00 75 1010.0
20260502044120 8 40 0.0 0.0 0.00 0.00 0.00 73 1010.0
20260502043618 9 40 0.0 0.0 0.00 0.00 0.00 72 1009.9
20260502043114 9 15 0.0 0.0 0.00 0.00 0.00 73 1009.9
20260502042609 9 354 0.0 0.0 0.00 0.00 0.00 70 1010.1
20260502042106 10 325 1.6 3.2 0.00 0.00 0.00 73 1010.1
20260502041604 10 333 1.6 1.6 0.00 0.00 0.00 70 1009.8
20260502041101 9 330 0.0 1.6 0.00 0.00 0.00 69 1009.9
20260502040557 9 89 0.0 0.0 0.00 0.00 0.00 68 1009.8
20260502040055 9 209 1.6 1.6 0.00 0.00 0.00 69 1009.9
20260502035550 9 352 0.0 1.6 0.00 0.00 0.00 68 1010.1
20260502035048 10 312 1.6 1.6 0.00 0.00 0.00 68 1009.9
20260502034546 10 310 1.6 1.6 0.00 0.00 0.00 67 1009.9
20260502034044 10 8 0.0 1.6 0.00 0.00 0.00 67 1009.8
20260502033542 10 35 0.0 0.0 0.00 0.00 0.00 66 1009.9
20260502033039 10 18 0.0 0.0 0.00 0.00 0.00 64 1009.9
20260502032535 10 9 0.0 0.0 0.00 0.00 0.00 64 1010.2
20260502032032 10 31 0.0 0.0 0.00 0.00 0.00 64 1010.1
20260502031530 10 45 0.0 1.6 0.00 0.00 0.00 61 1009.9
20260502031027 10 338 3.2 3.2 0.00 0.00 0.00 62 1009.9
20260502030526 10 359 0.0 0.0 0.00 0.00 0.00 62 1009.8
20260502030023 10 352 1.6 1.6 0.00 0.00 0.00 61 1009.8
20260502025520 10 218 3.2 3.2 0.00 0.00 0.00 61 1009.6
20260502025019 10 313 1.6 1.6 0.00 0.00 0.00 61 1009.5
20260502024515 10 18 0.0 1.6 0.00 0.00 0.00 64 1009.8
20260502024014 10 351 0.0 0.0 0.00 0.00 0.00 64 1009.8
20260502023511 9 35 1.6 1.6 0.00 0.00 0.00 63 1009.9
20260502023008 8 13 1.6 1.6 0.00 0.00 0.00 65 1009.9
20260502022505 8 316 0.0 1.6 0.00 0.00 0.00 71 1009.8
20260502022003 7 72 1.6 1.6 0.00 0.00 0.00 77 1009.9
20260502021500 6 44 0.0 0.0 0.00 0.00 0.00 79 1009.9
20260502020956 6 20 0.0 0.0 0.00 0.00 0.00 77 1009.8
20260502020455 7 40 0.0 0.0 0.00 0.00 0.00 77 1009.8
20260502015950 7 38 0.0 0.0 0.00 0.00 0.00 77 1009.6
20260502015449 6 44 0.0 0.0 0.00 0.00 0.00 77 1009.6
20260502014945 6 12 0.0 0.0 0.00 0.00 0.00 79 1009.6
20260502014442 6 22 0.0 0.0 0.00 0.00 0.00 78 1009.4
20260502013938 6 22 0.0 0.0 0.00 0.00 0.00 77 1009.5
20260502013434 6 25 0.0 0.0 0.00 0.00 0.00 76 1009.4
20260502012931 6 27 0.0 0.0 0.00 0.00 0.00 75 1009.6
20260502012428 6 23 0.0 0.0 0.00 0.00 0.00 75 1009.4
20260502011926 6 22 0.0 0.0 0.00 0.00 0.00 74 1009.4
20260502011422 6 22 0.0 0.0 0.00 0.00 0.00 73 1009.3
20260502010919 6 22 0.0 0.0 0.00 0.00 0.00 73 1009.4
20260502010415 7 22 0.0 0.0 0.00 0.00 0.00 73 1009.2
20260502005912 7 22 0.0 0.0 0.00 0.00 0.00 72 1009.2
20260502005410 7 22 0.0 0.0 0.00 0.00 0.00 72 1009.2
20260502004908 7 22 0.0 0.0 0.00 0.00 0.00 69 1008.9
20260502004403 7 22 0.0 0.0 0.00 0.00 0.00 66 1008.8
20260502003901 8 22 0.0 0.0 0.00 0.00 0.00 64 1008.8
20260502003358 8 22 0.0 0.0 0.00 0.00 0.00 62 1008.8
20260502002854 9 22 0.0 0.0 0.00 0.00 0.00 61 1008.8
20260502002351 9 22 0.0 0.0 0.00 0.00 0.00 60 1008.5
20260502001849 10 16 0.0 0.0 0.00 0.00 0.00 57 1008.5
20260502001346 10 14 0.0 0.0 0.00 0.00 0.00 55 1008.6